STARLINK-4416, 53212

Orbit data source: Space-Track

STARLINK-4416, 53212 is a payload satellite owned by SpaceX/Seattle (US) in SSO that was launched on Fri, 22 Jul 2022 UTC via an FALCON 9 launch vehicle from the Air Force Western Test Range (AFWTR). Payload-class satellites include a variety of spacecraft equipped with specific instruments for various scientific and technological missions. These include communications satellites like Starlink; space stations such as the ISS; scientific satellites like the Hubble; Earth observation satellites from companies like Planet Labs, Umbra, and HawkEye 360; GPS; miniature CubeSats for education and research; and military/defense satellites.

Loading next visibility...
Identifier
53212, 2022-084Z
Orbit
SSO
Country
Flag of USUS
Related business
Manufacturer
SpaceX/Seattle
Mission
Operational Commercial Communications
Bus & Motor
STARLINK, Unknown motor
Mass
297 kg wet, ~275 kg dry
Launch date (UTC)
2022-07-22 (4 years ago)
Launch vehicle
FALCON 9
Launch site
Air Force Western Test Range (AFWTR)
Object type
Payload
Rocket body
Debris
Shape & HBR
Box + 1 Pan, 10.1 m
Radar Cross Section
13.562 m², Large (>1 m²)

Expand to show TLE details & history
Last TLE update: 3 days ago

TLE from 3 days ago
0 STARLINK-4416
1 53212U 22084Z   26170.72317359 -.00000926  00000-0 -60242-4 0  9999
2 53212  97.3394 230.7206 0001560  87.6992 272.4414 15.05660508214729
Epoch: 2026-06-19T17:21Z
TLE epoch observation values (Epoch: 2026-06-19T17:21:22.198Z)
Latitude
-0.00002°
Longitude
62.43005°
Altitude
552.506 km
Speed
7.586 km/s
True Right ascension
15h 22m 52s
True Declination
0° 00' 00"
Sunlit
Object was in full shadow at epoch
Visualization orbit readout
Latitude
Unknown
Longitude
Unknown
Altitude
Unknown
Speed
Unknown
Apparent Right ascension
Unknown
Apparent Declination
Unknown
Sunlit
N/A
Visualization observer readout
Local Sidereal Time
21:34:06
Azimuth
Unknown
Elevation
Unknown
Doppler factor
Unknown
Orbital elements
Apogee altitude
547.541 km
Perigee altitude
545.381 km
Semi-major axis
6,924.598 km
Eccentricity
0.00016
Inclination
97.3394°
RAAN
230.7206°
Arg. of periapsis
87.6992°
True anomaly
272.42354°
Mean anomaly
272.4414°
Eccentric anomaly
272.43247°
Mean motion
3.76662 °/min
Orbital period
95.58 mins
BSTAR
-0.000060242
Loading maneuver chart data...
Computing Atmospheric mass density...
Loading historical data...
Loading historical data...
Loading historical data...
Loading historical data...
Loading historical data...
Loading historical data...
Loading historical data...

Documentation

Showing up to 5 results
|